Location: Grand Lay
(47.3253°N, 0.9468°E)
Time: 23:33:07
(UTC+00:00)

Gbstr 26 Del rocket - Pass Details

Date: 18 January 2026
Orbit: 490 x 1217 km, 51.8° (Epoch: 16 February)

Event Time Altitude Azimuth Distance (km) Brightness Sun altitude
Exits shadow 06:15:42 14° 262° (W) 2,721 5.8 -13.4°
Maximum altitude 06:22:09 69° 344° (NNW) 1,101 4.2 -12.4°
Drops below altitude 10° 06:28:24 10° 68° (ENE) 2,588 7.0 -11.4°
Sets 06:30:45 0° 71° (ENE) 3,421 7.8 -11.0°
